TimeEDT,TemperatureF,Dew PointF,Humidity,Sea Level PressureIn,VisibilityMPH,Wind Direction,Wind SpeedMPH,Gust SpeedMPH,PrecipitationIn,Events,Conditions,WindDirDegrees,DateUTC
12:22 AM,57.2,57.2,100,29.77,3.0,South,25.3,35.7,0.00,Rain,Light Rain,190,2013-04-20 04:22:00
12:53 AM,57.9,57.9,100,29.77,4.0,SSW,25.3,38.0,0.01,Rain,Light Rain,200,2013-04-20 04:53:00
1:19 AM,57.2,57.2,100,29.75,2.5,SSW,25.3,34.5,0.00,Rain,Light Rain,200,2013-04-20 05:19:00
1:50 AM,57.2,57.2,100,29.75,4.0,SSW,23.0,32.2,0.01,Rain,Light Rain,200,2013-04-20 05:50:00
1:53 AM,57.9,57.0,97,29.75,4.0,SSW,23.0,32.2,0.01,Rain,Light Rain,210,2013-04-20 05:53:00
2:48 AM,55.4,55.4,100,29.73,3.0,SW,20.7,33.4,0.03,Rain,Light Rain,220,2013-04-20 06:48:00
2:53 AM,57.0,55.9,96,29.73,6.0,SW,21.9,29.9,0.03,Rain,Light Rain,220,2013-04-20 06:53:00
3:53 AM,55.9,55.9,100,29.72,4.0,SSW,21.9,29.9,0.15,Rain,Rain,210,2013-04-20 07:53:00
4:53 AM,55.9,55.0,97,29.72,4.0,SSW,19.6,25.3,0.05,Rain,Light Rain,210,2013-04-20 08:53:00
5:53 AM,55.9,55.0,97,29.71,7.0,SSW,16.1,26.5,0.02,Rain,Light Rain,210,2013-04-20 09:53:00
6:24 AM,53.6,53.6,100,29.72,2.0,SW,11.5,23.0,0.00,Rain,Light Rain,230,2013-04-20 10:24:00
6:33 AM,53.6,53.6,100,29.73,1.8,SW,12.7,-,0.00,Rain,Light Rain,230,2013-04-20 10:33:00
6:53 AM,53.1,53.1,100,29.73,1.2,SW,16.1,25.3,0.02,Rain,Light Rain,230,2013-04-20 10:53:00
7:06 AM,53.6,53.6,100,29.74,3.0,SW,11.5,19.6,0.01,Rain,Light Rain,230,2013-04-20 11:06:00
7:53 AM,51.1,51.1,100,29.76,10.0,West,11.5,-,0.03,Rain,Light Rain,270,2013-04-20 11:53:00
8:53 AM,51.1,48.9,92,29.79,9.0,NW,10.4,19.6,0.06,Rain,Light Rain,310,2013-04-20 12:53:00
9:53 AM,50.0,48.0,93,29.83,10.0,WNW,11.5,-,0.07,Rain,Light Rain,290,2013-04-20 13:53:00
10:14 AM,48.2,46.4,93,29.87,10.0,WNW,9.2,-,0.01,Rain,Light Rain,300,2013-04-20 14:14:00
10:23 AM,48.2,46.4,93,29.88,10.0,WNW,10.4,-,0.02,Rain,Light Rain,300,2013-04-20 14:23:00
10:46 AM,48.2,46.4,93,29.90,10.0,WNW,5.8,-,0.02,Rain,Light Rain,290,2013-04-20 14:46:00
10:53 AM,48.9,46.9,93,29.91,10.0,WNW,6.9,-,0.02,Rain,Light Rain,290,2013-04-20 14:53:00
11:02 AM,48.2,46.4,93,29.91,10.0,WNW,6.9,-,0.00,,Overcast,290,2013-04-20 15:02:00
11:53 AM,50.0,42.1,74,29.91,10.0,West,8.1,-,0.00,,Overcast,280,2013-04-20 15:53:00
12:53 PM,52.0,43.0,71,29.91,10.0,West,9.2,-,N/A,,Clear,260,2013-04-20 16:53:00
1:53 PM,53.1,41.0,64,29.92,10.0,West,10.4,21.9,N/A,,Clear,260,2013-04-20 17:53:00
2:53 PM,53.1,39.9,61,29.94,10.0,SW,12.7,-,N/A,,Clear,230,2013-04-20 18:53:00
3:53 PM,51.1,41.0,68,29.94,10.0,SW,13.8,19.6,N/A,,Clear,220,2013-04-20 19:53:00
4:53 PM,50.0,43.0,77,29.97,10.0,WSW,12.7,21.9,N/A,,Clear,240,2013-04-20 20:53:00
5:53 PM,50.0,41.0,71,30.00,10.0,WSW,9.2,-,N/A,,Clear,240,2013-04-20 21:53:00
6:53 PM,51.1,30.9,46,30.01,10.0,West,12.7,21.9,N/A,,Clear,260,2013-04-20 22:53:00
7:53 PM,48.9,35.1,59,30.04,10.0,West,10.4,-,N/A,,Clear,270,2013-04-20 23:53:00
8:53 PM,48.9,34.0,56,30.09,10.0,West,8.1,-,N/A,,Clear,270,2013-04-21 00:53:00
9:53 PM,46.9,35.1,63,30.12,10.0,West,4.6,-,N/A,,Clear,260,2013-04-21 01:53:00
10:53 PM,46.0,39.0,76,30.14,10.0,WNW,6.9,-,N/A,,Clear,290,2013-04-21 02:53:00
11:53 PM,45.0,37.0,74,30.19,10.0,NNW,8.1,-,N/A,,Clear,330,2013-04-21 03:53:00